User: anonymous   Login
Location: Unspecified
(0.0000°N, 0.0000°E)
Time: 01:49:46
(UTC+00:00)
Language:

STARLINK-35048 - Orbit

View from above orbital plane
View from above orbital plane
View from above satellite
View from above satellite

Ground track
Ground track

The orbit is defined by the following mean orbital elements,

1 65286U          26145.40471999 +.00000000 +00000-0 +18839-3 0 00003
2 65286  97.4459 197.8974 0002390 124.4675 235.6778 15.05653629    05
Epoch (UTC): 25 May 2026 09:42:47
Eccentricity: 0.0002390
inclination: 97.4459°
perigee height: 548 km
apogee height: 551 km
right ascension of ascending node: 197.8974°
argument of perigee: 124.4675°
revolutions per day: 15.05653629
mean anomaly at epoch: 235.6778°

The dashed part of the orbit path shows where the satellite is in the earth's shadow,  

DLR